Weather Roundup
Issued by NWS Chicago, IL

Home | Current Version | Previous Version | Text Only | Print | Product List | Glossary On
Versions: 1 2 3 4 5 6 7 8 9 10 11 12 13 14 15 16 17 18 19 20 21 22 23 24 25 26 27 28 29 30 31 32 33 34 35 36 37 38 39 40 41 42 43 44 45 46 47 48 49 50
000
NZUS59 KLOT 241309
HRRLOT

CHICAGO AREA WEATHER ROUNDUP
NATIONAL WEATHER SERVICE CHICAGO/ROMEOVILLE IL
800 AM CDT MON JUL 24 2017

NOTE: "FAIR" INDICATES FEW OR NO CLOUDS BELOW 12,000 FEET WITH NO
SIGNIFICANT WEATHER AND/OR OBSTRUCTIONS TO VISIBILITY.

* THESE STATIONS ARE NOT UNDER NWS QUALITY CONTROL. THEY ALSO MAY NOT
  REPORT WEATHER SUCH AS PRECIPITATION OR FOG.

ILZ005-006-012>014-019>023-241400-
NORTHEAST ILLINOIS

CITY           SKY/WX    TMP DP  RH WIND       PRES   REMARKS
OHARE          PTSUNNY   68  60  75 N12       29.99S
MIDWAY         PTSUNNY   69  61  75 N12G22    29.99R
AURORA         PTSUNNY   66  61  84 NE12      30.00S
LANSING*       CLOUDY    69  60  71 N10G18    29.99R
JOLIET*        MOSUNNY   70  62  77 NE8       29.99R
WAUKEGAN       CLOUDY    68  61  78 NE15G22   30.00S
DUPAGE AIRPORT MOSUNNY   66  62  87 NE12      30.00R
WHEELING       MOSUNNY   66  63  90 N10G20    30.01R
MORRIS*        CLOUDY    66  63  88 CALM      29.99R
LEWIS AIRPORT* MOSUNNY   66  59  76 N12       30.00R
NORTHERLY ISL    N/A     68  60  75 MISG        N/A
$$

WIZ051-052-058>065-066-070>072-241400-
SOUTHEAST WISCONSIN

CITY           SKY/WX    TMP DP  RH WIND       PRES   REMARKS
MILWAUKEE      PTSUNNY   67  59  75 N12G24    30.02R
KENOSHA*       CLOUDY    66  60  81 N7        30.02R
RACINE*        CLOUDY    66  60  81 N17G23    30.03S
WAUKESHA       CLOUDY    63  55  77 N8        30.04S
WEST BEND      CLOUDY    63  55  77 NE7       30.05R
$$

INZ001>003-010>013-019-020-241400-
NORTHWEST INDIANA

CITY           SKY/WX    TMP DP  RH WIND       PRES   REMARKS
GARY*          PTSUNNY   72  61  68 N14       29.98R
MICHIGAN CITY* NOT AVBL
RENSSELAER*    NOT AVBL
VALPARAISO     MOSUNNY   71  62  73 N12G20    29.97R
$$

LMZ740>746-241400-
SOUTHERN LAKE MICHIGAN

STATION/POSITION TIME  SKY/WX   TEMP WIND        PRES    VSBY
                                AIR  DIR/SP/G
                 (UTC)          (F)  (DEG/KT/KT) (MB)    (MI)
HARRISON CRIB    1240            69   10/ 20/ 21   N/A
BURNHAM HARBOR   1300            69                N/A
CALUMET HARBOR   1248            69  350/ 10/ 17 1015.0R
BURNS HARBOR     1240            69   10/ 13/ 17 1015.6R
MICHIGAN CITY    1240            69  350/ 16/ 17   N/A
$$

ABBREVIATIONS USED IN REMARKS
   TC - TEMPERATURE IN CELSIUS
  WCI - WIND CHILL INDEX
   HX - HEAT INDEX
  VSB - VISIBILITY
$$



USA.gov is the U.S. government's official web portal to all federal, state and local government web resources and services.